STARLINK-5164 (54178 NORAD) Tracking and Keplerian Element Data

This shows tracking and keplerian element data for the satellite.

Feedback or suggestion? Click here.




ElementValue
Catalog54178
NameSTARLINK-5164
Epoch Orbit384
Epoch Day325.25001157
Epoch Year2022
RAAN24.1051
Inclination53.2182
Eccentricity0.0003247
Argument of Perigee13.0329
Mean Anonmoly10.8032
Mean Motion15.73182076
Decay Rate0.00029702
L11 54178U 22141X 22325.25001157 .00029702 00000+0 21543-3 0 9997
L22 54178 53.2182 24.1051 0003247 13.0329 10.8032 15.73182076 3844



Live tracking and technical data element details for STARLINK-5164 (NORAD 54178). STARLINK-5164 can be tracked NOW for your location showing map with azimuth and elevation plus other details from your city location.







IsCatalogInMostPopularTable: catalog: 54178, numindb: 8
Update: records affected: 1



GetName: 54178 STARLINK-5164

Hit Count: updated at: Sun, 04 Dec 2022 21:19:20 GMT